#timestamp,LO_Frequency,Hit,StdDev 
1455469215.4,286047004.0,N
1455469235.3,286047004.7,N
1455469255.1,286047010.7,N
1455469275.8,286047005.8,N
1455469295.7,286047007.1,N
1455469315.5,286047006.1,N
1455469335.3,286047007.4,N
1455469355.2,286047008.3,N
1455469375.9,286047006.3,N
1455469395.7,286047007.9,N
1455469415.5,286047003.0,N
1455469435.4,286047002.2,N
1455469455.2,286047000.0,N
1455469475.0,286047003.0,N
1455469475.9,286047003.0,N
1455469495.8,286047005.6,N
1455469515.6,286047002.4,N
1455469535.4,286047001.8,N
1455469555.3,286047003.5,N
1455469575.1,286047005.5,N
1455469595.8,286047002.2,N
1455469615.7,286046999.9,N
1455469635.5,286047001.2,N
1455469655.3,286046996.5,N
1455469675.2,286046993.0,N
1455469695.9,286046987.5,Y
1455469715.7,286046985.0,P
1455469735.6,286046982.8,N
1455469755.4,286046982.8,N
1455469775.2,286046983.0,N
1455469795.1,286046982.0,N
1455469796.0,286046982.0,N
1455469815.8,286046980.0,N
1455469835.6,286046981.7,N
1455469855.5,286046975.8,Y
1455469875.3,286046988.5,P
1455469895.1,286046990.6,P
1455469915.9,286046990.0,P
1455469935.7,286046986.4,Y
1455469955.5,286046995.4,P
1455469975.4,286046998.8,N
1455469995.2,286046997.7,N
1455470015.0,286046995.1,N
1455470015.9,286046995.1,N
1455470035.8,286046999.3,N
1455470055.6,286046997.4,N
1455470075.4,286046999.6,N
1455470095.2,286046999.1,N
1455470115.1,286047002.4,N
1455470116.0,286047002.4,N
1455470135.8,286047004.1,N
1455470155.6,286047003.5,N
1455470175.5,286047004.2,N
1455470195.3,286047005.4,N
1455470215.1,286047009.2,N
1455470235.9,286047011.4,N
1455470255.7,286047017.2,Y
1455470275.5,286047015.3,P
1455470295.4,286047018.5,N
1455470315.2,286047023.6,P
1455470335.0,286047021.0,N
1455470335.9,286047021.0,N
1455470355.8,286047022.5,N
1455470375.6,286047023.5,Y
1455470395.4,286047004.9,P
1455470415.3,286047010.0,N
1455470435.1,286047011.7,N
1455470436.0,286047011.7,N
1455470455.8,286047012.1,N
1455470475.7,286047013.0,Y
1455470495.5,286047004.5,P
1455470515.3,286047006.8,N
1455470535.2,286047005.5,N
1455470555.9,286047005.6,N
1455470575.7,286047002.7,N
1455470595.5,286047002.3,N
1455470615.4,286047005.6,N
1455470635.2,286047004.5,N
1455470655.0,286047007.2,N
1455470655.9,286047007.2,N
1455470675.8,286047001.8,N
1455470695.6,286046999.6,N
1455470715.4,286046995.7,N
1455470735.3,286046993.9,N
1455470755.1,286046991.7,N
1455470756.0,286046991.7,N
1455470775.8,286046995.7,N
1455470795.7,286047001.0,N
1455470815.5,286047000.5,N
1455470835.3,286047001.2,N
1455470855.2,286046996.5,N
1455470875.9,286046996.9,N
1455470895.7,286046994.1,N
1455470915.5,286046991.2,N
1455470935.4,286046990.1,N
1455470955.2,286046993.8,N
1455470975.0,286046995.0,N
1455470975.9,286046995.0,N
1455470995.8,286046990.6,N
1455471015.6,286046992.3,N
1455471035.4,286046986.9,N
1455471055.3,286046991.3,N
1455471075.1,286046988.9,N
1455471076.0,286046988.9,N
1455471095.8,286046994.8,N
1455471115.7,286046992.4,N
1455471135.5,286046988.8,N
1455471155.3,286046987.4,N
1455471175.2,286046987.1,N
1455471195.9,286046985.8,N
1455471215.7,286046984.7,Y
1455471235.6,286046986.7,P
1455471255.4,286046982.2,P
1455471275.2,286046988.0,N
1455471295.1,286046990.0,N
1455471296.0,286046990.0,N
1455471315.8,286046987.3,Y
1455471335.6,286047000.0,P
1455471355.5,286046997.4,N
1455471375.3,286046996.4,N
1455471395.1,286046995.5,N
1455471415.9,286046995.6,N
1455471435.7,286046994.4,N
1455471455.5,286046994.0,N
1455471475.3,286046994.1,N
1455471495.2,286046995.8,N
1455471515.0,286046992.3,N
1455471515.9,286046992.3,N
1455471535.7,286046993.7,N
1455471555.6,286046995.8,N
1455471575.4,286046995.1,N
1455471595.2,286046996.1,N
1455471615.1,286046993.7,N
1455471616.0,286046993.7,N
1455471635.8,286046994.0,N
1455471655.6,286046996.3,N
1455471675.5,286046996.7,N
1455471695.3,286046996.2,N
1455471715.1,286046992.0,Y
1455471735.9,286046998.9,P
1455471755.7,286047003.5,N
1455471775.5,286047001.6,N
1455471795.4,286047001.8,N
1455471815.2,286047001.4,N
1455471835.0,286047005.7,N
1455471835.9,286047005.7,N
1455471855.7,286047003.0,N
1455471875.6,286047002.9,N
1455471895.4,286047007.6,N
1455471915.2,286047006.9,N
1455471935.1,286047006.8,N
1455471936.0,286047006.8,N
1455471955.8,286047007.9,N
1455471975.6,286047011.1,Y
1455471995.5,286047007.2,P
1455472015.3,286047004.9,N
1455472035.2,286047004.8,P
1455472055.9,286047004.5,Y
1455472075.7,286047000.3,P
1455472095.6,286047001.5,N
1455472115.4,286047006.8,P
1455472135.2,286047008.2,Y
1455472155.1,286047003.3,P
1455472156.0,286047003.3,P
1455472175.8,286047001.8,P
1455472195.6,286047003.3,Y
1455472215.5,286046997.3,P
1455472235.3,286046997.5,N
1455472255.1,286046998.3,N
1455472275.9,286047001.5,N
1455472295.7,286047003.6,N
1455472315.5,286047000.2,N
1455472335.3,286046997.2,N
1455472355.2,286047001.2,N
1455472375.0,286047004.2,N
1455472375.9,286047004.2,N
1455472395.7,286047001.6,N
1455472415.6,286047002.6,N
1455472435.4,286047005.4,N
1455472455.2,286047004.6,N
1455472475.1,286047005.2,N
1455472476.0,286047005.2,N
1455472495.8,286047002.9,N
1455472515.6,286047007.3,N
1455472535.5,286047006.3,N
1455472555.3,286047003.0,N
1455472575.1,286046998.1,N
1455472595.9,286046999.6,N
1455472615.7,286046996.6,N
1455472635.5,286046995.2,N
1455472655.4,286046996.0,N
1455472675.2,286046995.9,N
1455472695.0,286046994.4,N
1455472695.9,286046994.4,N
1455472715.7,286046995.2,N
1455472735.6,286046993.3,N
1455472755.4,286046993.4,N
1455472775.2,286046990.6,N
1455472795.1,286046993.1,N
1455472796.0,286046993.1,N
1455469215.0,286047002.0,N
1455469216.0,286047002.0,N
1455469235.8,286047002.0,N
1455469255.6,286047001.3,N
1455469275.4,286047000.8,N
1455469295.3,286047000.6,N
1455469315.1,286047001.4,N
1455469335.8,286047002.3,N
1455469355.7,286047003.5,N
1455469375.5,286047004.4,N
1455469395.3,286047001.3,N
1455469415.2,286047003.4,N
1455469435.9,286047004.9,N
1455469455.7,286047006.7,N
1455469475.6,286047008.7,N
1455469495.4,286047006.6,N
1455469515.2,286047008.9,N
1455469535.1,286047009.0,N
1455469536.0,286047009.0,N
1455469555.8,286047005.3,N
1455469575.6,286047003.4,N
1455469595.4,286047005.8,N
1455469615.3,286047003.4,N
1455469635.1,286047003.0,N
1455469655.8,286047006.4,N
1455469675.7,286047008.9,Y
1455469695.5,286047003.3,P
1455469715.3,286047000.4,N
1455469735.2,286046998.9,N
1455469755.0,286046998.1,N
1455469755.9,286046998.1,N
1455469775.7,286046997.0,N
1455469795.6,286046999.1,N
1455469815.4,286046999.6,N
1455469835.2,286046998.5,N
1455469855.1,286047001.1,N
1455469856.0,286047001.1,N
1455469875.8,286047001.2,N
1455469895.6,286047001.1,N
1455469915.5,286046997.0,N
1455469935.3,286046997.6,N
1455469955.1,286046995.8,N
1455469975.9,286046995.5,N
1455469995.7,286046994.8,N
1455470015.5,286046993.0,N
1455470035.4,286046990.9,Y
1455470055.2,286046991.2,P
1455470075.0,286046989.3,N
1455470075.9,286046989.3,N
1455470095.8,286046988.2,Y
1455470115.6,286046995.7,P
1455470135.4,286046995.1,N
1455470155.3,286046995.5,N
1455470175.1,286046995.5,Y
1455470176.0,286046995.5,P
1455470195.8,286047000.3,N
1455470215.7,286046999.1,N
1455470235.5,286047001.6,N
1455470255.3,286047000.0,N
1455470275.1,286047000.6,N
1455470295.9,286046998.0,N
1455470315.7,286046994.1,N
1455470335.5,286046996.1,N
1455470355.4,286046995.3,N
1455470375.2,286046993.6,N
1455470395.0,286046992.7,N
1455470395.9,286046992.7,N
1455470415.8,286046989.7,Y
1455470435.6,286046992.9,P
1455470455.4,286046992.8,P
1455470475.3,286046988.6,P
1455470495.1,286046992.8,N
1455470515.8,286046992.8,N
1455470535.7,286046991.0,Y
1455470555.5,286046996.5,P
1455470575.3,286046998.7,N
1455470595.2,286047000.6,N
1455470615.9,286046997.3,N
1455470635.7,286046996.8,N
1455470655.6,286046997.4,N
1455470675.4,286046996.9,N
1455470695.2,286046996.8,N
1455470715.1,286046995.2,N
1455470716.0,286046995.2,N
1455470735.8,286046993.9,Y
1455470755.6,286046993.7,P
1455470775.5,286046994.8,P
1455470795.3,286046991.9,P
1455470815.1,286046991.7,Y
1455470835.9,286046999.6,P
1455470855.7,286046997.8,N
1455470875.5,286046995.1,N
1455470895.4,286046994.7,N
1455470915.2,286046992.9,Y
1455470935.0,286046995.4,P
1455470935.9,286046995.4,P
1455470955.8,286046999.6,N
1455470975.6,286046998.6,N
1455470995.4,286046998.2,N
1455471015.3,286047001.0,N
1455471035.1,286046999.5,N
1455471036.0,286046999.5,N
1455471055.8,286047000.2,N
1455471075.7,286046998.4,N
1455471095.5,286046998.2,N
1455471115.3,286047000.5,N
1455471135.1,286047001.7,N
1455471155.9,286047000.7,N
1455471175.7,286047000.0,N
1455471195.5,286047001.9,N
1455471215.4,286046998.3,N
1455471235.2,286046999.5,N
1455471255.0,286046997.1,N
1455471255.9,286046997.1,N
1455471275.8,286047000.6,N
1455471295.6,286047000.7,N
1455471315.4,286046999.9,N
1455471335.3,286046999.8,N
1455471355.1,286047000.1,N
1455471356.0,286047000.1,N
1455471375.8,286046998.1,N
1455471395.7,286046996.6,N
1455471415.5,286046997.7,N
1455471435.3,286046998.7,N
1455471455.1,286047000.5,N
1455471475.9,286047003.8,N
1455471495.7,286047005.1,Y
1455471515.5,286047004.9,P
1455471535.4,286047004.6,N
1455471555.2,286047004.6,N
1455471575.0,286047010.7,Y
1455471576.0,286047010.7,P
1455471595.8,286047005.4,N
1455471615.6,286047004.8,N
1455471635.4,286047006.0,N
1455471655.3,286047002.6,N
1455471675.1,286047000.3,N
1455471695.8,286046998.1,N
1455471715.7,286047002.7,N
1455471735.5,286047001.6,N
1455471755.3,286047002.5,N
1455471775.2,286046999.7,N
1455471795.9,286047002.7,N
1455471815.7,286047001.4,N
1455471835.6,286047001.3,N
1455471855.4,286047002.8,N
1455471875.2,286047001.8,N
1455471895.0,286047001.0,N
1455471895.9,286047001.0,N
1455471915.8,286047001.0,N
1455471935.6,286046998.9,N
1455471955.4,286046997.8,N
1455471975.3,286046996.5,N
1455471995.1,286046995.5,N
1455472015.8,286046997.6,N
1455472035.7,286046997.0,N
1455472055.5,286046997.5,N
1455472075.3,286046997.8,N
1455472095.2,286046999.9,N
1455472115.9,286047002.8,N
1455472135.7,286047000.8,N
1455472155.6,286047001.3,N
1455472175.4,286047002.6,N
1455472195.2,286047004.2,N
1455472215.0,286047002.9,N
1455472216.0,286047002.9,N
1455472235.8,286047007.4,Y
1455472255.6,286047007.0,P
1455472275.5,286047007.0,N
1455472295.3,286047007.0,N
1455472315.1,286047002.9,N
1455472335.8,286047005.5,N
1455472355.7,286047004.7,N
1455472375.5,286047003.0,N
1455472395.3,286047005.7,N
1455472415.2,286047005.5,N
1455472435.9,286047003.2,N
1455472455.7,286047003.5,N
1455472475.6,286047001.7,N
1455472495.4,286047006.0,N
1455472515.2,286047005.4,N
1455472535.1,286047004.6,N
1455472536.0,286047004.6,N
1455472555.8,286047004.5,N
1455472575.6,286047005.6,Y
1455472595.5,286046998.9,P
1455472615.3,286046998.8,N
1455472635.1,286046994.9,N
1455472655.9,286046992.2,N
1455472675.7,286046992.9,N
1455472695.5,286046994.7,N
1455472715.3,286046996.1,N
1455472735.2,286046996.4,N
1455472755.0,286046998.0,N
1455472755.9,286046998.0,N
1455472775.7,286046994.4,N
1455472795.6,286046992.4,N
